Location: ČR
(50.0000°N, 15.0000°E)
Time: 18:52:02
(UTC+01:00)

Courier 1B - All Passes

Search period start: 10 February 2026 00:00
Search period end: 20 February 2026 00:00
Orbit: 962 x 1208 km, 28.3° (Epoch: 10 February)

Date Brightness Start Highest point End Pass type
(mag) Time Alt. Az. Time Alt. Az. Time Alt. Az.
10 Feb - 00:18:01 10° SSW 00:21:17 13° S 00:24:31 10° SSE night (unlit)
10 Feb - 02:11:34 10° SSW 02:13:55 12° SSW 02:16:15 10° S night (unlit)
10 Feb - 23:24:44 10° SSW 23:27:39 12° S 23:30:33 10° SSE night (unlit)
11 Feb - 01:17:11 10° SSW 01:20:19 13° S 01:23:25 10° SSE night (unlit)
11 Feb - 22:31:59 10° S 22:34:02 11° SSE 22:36:04 10° SSE night (unlit)
12 Feb - 00:23:12 10° SSW 00:26:41 14° S 00:30:08 10° SSE night (unlit)
12 Feb - 23:29:30 10° SSW 23:33:03 14° S 23:36:35 10° SSE night (unlit)
13 Feb - 01:23:48 10° SSW 01:25:41 11° SSW 01:27:34 10° S night (unlit)
13 Feb - 22:36:05 10° SSW 22:39:24 13° S 22:42:43 10° SSE night (unlit)
14 Feb - 00:29:08 10° SSW 00:32:04 12° S 00:35:00 10° SSE night (unlit)
14 Feb - 21:43:03 10° S 21:45:47 12° S 21:48:31 10° SSE night (unlit)
14 Feb - 23:35:02 10° SSW 23:38:27 13° S 23:41:51 10° SSE night (unlit)
15 Feb - 20:50:49 10° S 20:52:10 10° SSE 20:53:32 10° SSE visible
15 Feb - 22:41:16 10° SSW 22:44:48 14° S 22:48:21 10° SSE night (unlit)
16 Feb - 21:47:46 10° SSW 21:51:10 13° S 21:54:35 10° SSE visible
16 Feb - 23:41:29 10° SSW 23:43:49 11° SSW 23:46:10 10° S night (unlit)
17 Feb - 20:54:36 10° SSW 20:57:33 13° S 21:00:31 10° SSE visible
17 Feb - 22:47:11 10° SSW 22:50:11 13° S 22:53:13 10° SSE night (unlit)
18 Feb - 20:01:57 10° S 20:03:57 11° SSE 20:05:58 10° SSE visible
18 Feb - 21:53:18 10° SSW 21:56:34 13° S 21:59:52 10° SSE visible
19 Feb - 20:59:45 10° SSW 21:02:57 13° S 21:06:12 10° SSE visible
19 Feb - 22:55:02 10° SSW 22:55:34 10° SSW 22:56:07 10° S night (unlit)
